• In Belarus
  • List of Countries
  • For 7 days
  • Water Temperature
  • Satellite Maps
  • Weather Map
  • Weather Widgets
  • user-avatar
    Login

    Hourly Weather Gagra

    Today, 17 January, Wednesday

    Time Temperature Precipitation Wind Pressure Humidity
    00:00 +1°C° 0 mm 6 mps 734 mmHg 64%
    01:00 +1°C° 0.1 mm 6 mps 734 mmHg 66%
    02:00 +1°C° 0.1 mm 6 mps 733 mmHg 69%
    03:00 0°C° 0 mm 7 mps 732 mmHg 73%
    04:00 0°C° 0.1 mm 7 mps 732 mmHg 73%
    05:00 0°C° 0.1 mm 7 mps 732 mmHg 73%
    06:00 0°C° 0.1 mm 7 mps 732 mmHg 73%
    07:00 +1°C° 0.3 mm 6 mps 731 mmHg 75%
    08:00 +1°C° 0.3 mm 6 mps 731 mmHg 77%
    09:00 +2°C° 0 mm 7 mps 731 mmHg 79%
    10:00 +2°C° 0.5 mm 7 mps 731 mmHg 81%
    11:00 +3°C° 0.5 mm 7 mps 731 mmHg 82%
    12:00 +3°C° 0.5 mm 6 mps 731 mmHg 84%
    13:00 +3°C° 0.2 mm 6 mps 731 mmHg 83%
    14:00 +4°C° 0.2 mm 6 mps 731 mmHg 82%
    15:00 +4°C° 0 mm 7 mps 730 mmHg 82%
    16:00 +3°C° 0 mm 6 mps 730 mmHg 82%
    17:00 +3°C° 0 mm 5 mps 731 mmHg 83%
    18:00 +2°C° 0 mm 5 mps 731 mmHg 83%
    19:00 +2°C° 0 mm 5 mps 731 mmHg 82%
    20:00 +2°C° 0 mm 5 mps 730 mmHg 81%
    21:00 +1°C° 0 mm 5 mps 730 mmHg 80%
    22:00 +1°C° 0 mm 5 mps 730 mmHg 79%
    23:00 +1°C° 0 mm 5 mps 730 mmHg 78%

    Tomorrow, 18 January, Thursday

    Time Temperature Precipitation Wind Pressure Humidity
    00:00 +1°C° 0 mm 5 mps 729 mmHg 77%
    01:00 +1°C° 0 mm 5 mps 729 mmHg 76%
    02:00 +1°C° 0 mm 5 mps 728 mmHg 76%
    03:00 +1°C° 0 mm 6 mps 728 mmHg 76%
    04:00 +2°C° 0 mm 6 mps 728 mmHg 76%
    05:00 +2°C° 0 mm 6 mps 727 mmHg 76%
    06:00 +2°C° 0 mm 6 mps 726 mmHg 76%
    07:00 +2°C° 0 mm 7 mps 726 mmHg 75%
    08:00 +2°C° 0 mm 7 mps 725 mmHg 74%
    09:00 +3°C° 0 mm 7 mps 725 mmHg 73%
    10:00 +4°C° 0 mm 7 mps 724 mmHg 70%
    11:00 +6°C° 0 mm 7 mps 723 mmHg 67%
    12:00 +9°C° 0 mm 7 mps 722 mmHg 64%
    13:00 +8°C° 0.1 mm 7 mps 722 mmHg 65%
    14:00 +8°C° 0.1 mm 7 mps 721 mmHg 66%
    15:00 +8°C° 0.1 mm 7 mps 720 mmHg 67%
    16:00 +7°C° 0.4 mm 6 mps 720 mmHg 71%
    17:00 +7°C° 0.4 mm 6 mps 719 mmHg 75%
    18:00 +5°C° 0.4 mm 6 mps 719 mmHg 78%
    19:00 +5°C° 0.3 mm 6 mps 719 mmHg 78%
    20:00 +6°C° 0.3 mm 7 mps 719 mmHg 77%
    21:00 +6°C° 0.3 mm 7 mps 719 mmHg 76%
    22:00 +7°C° 1.1 mm 6 mps 720 mmHg 80%
    23:00 +7°C° 1.1 mm 6 mps 720 mmHg 83%

    Day after tomorrow, 19 January, Friday

    Time Temperature Precipitation Wind Pressure Humidity
    00:00 +6°C° 1.1 mm 5 mps 721 mmHg 87%
    01:00 +6°C° 1.4 mm 5 mps 721 mmHg 89%
    02:00 +7°C° 1.4 mm 5 mps 722 mmHg 90%
    03:00 +7°C° 1.4 mm 4 mps 723 mmHg 92%
    04:00 +6°C° 2.1 mm 4 mps 723 mmHg 93%
    05:00 +6°C° 2.1 mm 4 mps 724 mmHg 94%
    06:00 +6°C° 2.1 mm 4 mps 725 mmHg 95%
    07:00 +5°C° 1.7 mm 4 mps 726 mmHg 95%
    08:00 +5°C° 1.7 mm 3 mps 727 mmHg 94%
    09:00 +5°C° 1.7 mm 3 mps 728 mmHg 94%
    10:00 +5°C° 0.9 mm 3 mps 729 mmHg 94%
    11:00 +5°C° 0.9 mm 3 mps 730 mmHg 94%
    12:00 +5°C° 0.9 mm 3 mps 730 mmHg 94%
    13:00 +5°C° 0.3 mm 3 mps 731 mmHg 94%
    14:00 +5°C° 0.3 mm 3 mps 731 mmHg 93%
    15:00 +5°C° 0.3 mm 3 mps 732 mmHg 92%
    16:00 +4°C° 0.2 mm 3 mps 733 mmHg 92%
    17:00 +5°C° 0.2 mm 2 mps 734 mmHg 92%
    18:00 +5°C° 0.2 mm 2 mps 734 mmHg 91%
    19:00 +4°C° 0.1 mm 2 mps 735 mmHg 91%
    20:00 +4°C° 0.1 mm 2 mps 735 mmHg 90%
    21:00 +4°C° 0.1 mm 2 mps 736 mmHg 89%
    22:00 +3°C° 0 mm 2 mps 736 mmHg 89%
    23:00 +3°C° 0 mm 2 mps 736 mmHg 89%

    20 January, Saturday

    Time Temperature Precipitation Wind Pressure Humidity
    00:00 +3°C° 0 mm 2 mps 737 mmHg 88%
    01:00 +2°C° 0 mm 2 mps 737 mmHg 87%
    02:00 +2°C° 0 mm 2 mps 737 mmHg 85%
    03:00 +1°C° 0 mm 2 mps 737 mmHg 83%
    04:00 +1°C° 0 mm 2 mps 737 mmHg 82%
    05:00 +1°C° 0 mm 2 mps 737 mmHg 80%
    06:00 +1°C° 0 mm 2 mps 737 mmHg 79%
    07:00 +1°C° 0 mm 2 mps 738 mmHg 78%
    08:00 +2°C° 0 mm 2 mps 738 mmHg 77%
    09:00 +2°C° 0 mm 3 mps 738 mmHg 77%
    10:00 +3°C° 0 mm 3 mps 738 mmHg 77%
    11:00 +5°C° 0 mm 3 mps 737 mmHg 77%
    12:00 +8°C° 0 mm 3 mps 737 mmHg 77%
    13:00 +8°C° 0 mm 3 mps 737 mmHg 77%
    14:00 +8°C° 0 mm 3 mps 736 mmHg 78%
    15:00 +8°C° 0 mm 3 mps 736 mmHg 79%
    16:00 +7°C° 0 mm 3 mps 736 mmHg 78%
    17:00 +5°C° 0 mm 4 mps 735 mmHg 77%
    18:00 +4°C° 0 mm 4 mps 735 mmHg 77%
    19:00 +3°C° 0 mm 4 mps 735 mmHg 71%
    20:00 +3°C° 0 mm 4 mps 735 mmHg 65%
    21:00 +3°C° 0 mm 4 mps 735 mmHg 59%
    22:00 +3°C° 0 mm 4 mps 735 mmHg 58%
    23:00 +3°C° 0 mm 4 mps 734 mmHg 56%

    21 January, Sunday

    Time Temperature Precipitation Wind Pressure Humidity
    00:00 +2°C° 0 mm 5 mps 734 mmHg 55%
    01:00 +2°C° 0 mm 5 mps 734 mmHg 55%
    02:00 +3°C° 0 mm 5 mps 734 mmHg 56%
    03:00 +3°C° 0 mm 5 mps 734 mmHg 56%
    04:00 +3°C° 0 mm 5 mps 733 mmHg 55%
    05:00 +3°C° 0 mm 5 mps 733 mmHg 54%
    06:00 +3°C° 0 mm 5 mps 733 mmHg 53%
    07:00 +3°C° 0 mm 5 mps 733 mmHg 53%
    08:00 +5°C° 0 mm 5 mps 733 mmHg 53%
    09:00 +5°C° 0 mm 5 mps 733 mmHg 54%
    10:00 +7°C° 0 mm 5 mps 733 mmHg 56%
    11:00 +9°C° 0 mm 5 mps 733 mmHg 58%
    12:00 +10°C° 0 mm 5 mps 733 mmHg 60%
    13:00 +10°C° 0 mm 5 mps 733 mmHg 60%
    14:00 +11°C° 0 mm 4 mps 733 mmHg 60%
    15:00 +11°C° 0 mm 4 mps 733 mmHg 61%
    16:00 +10°C° 0 mm 4 mps 733 mmHg 58%
    17:00 +7°C° 0 mm 4 mps 733 mmHg 56%
    18:00 +5°C° 0 mm 4 mps 733 mmHg 54%
    19:00 +5°C° 0 mm 4 mps 733 mmHg 53%
    20:00 +5°C° 0 mm 4 mps 733 mmHg 52%
    21:00 +5°C° 0 mm 4 mps 733 mmHg 52%
    22:00 +5°C° 0 mm 3 mps 733 mmHg 52%
    23:00 +5°C° 0 mm 3 mps 732 mmHg 52%

    22 January, Monday

    Time Temperature Precipitation Wind Pressure Humidity
    00:00 +5°C° 0 mm 3 mps 732 mmHg 53%
    01:00 +5°C° 0 mm 3 mps 732 mmHg 53%
    02:00 +5°C° 0 mm 3 mps 732 mmHg 54%
    03:00 +6°C° 0 mm 2 mps 731 mmHg 55%
    04:00 +6°C° 0 mm 2 mps 731 mmHg 55%
    05:00 +7°C° 0 mm 2 mps 730 mmHg 55%
    06:00 +7°C° 0 mm 2 mps 730 mmHg 55%
    07:00 +7°C° 0 mm 2 mps 730 mmHg 56%
    08:00 +8°C° 0 mm 2 mps 729 mmHg 56%
    09:00 +8°C° 0 mm 2 mps 729 mmHg 57%
    10:00 +9°C° 0 mm 2 mps 729 mmHg 60%
    11:00 +10°C° 0 mm 2 mps 728 mmHg 64%
    12:00 +13°C° 0 mm 2 mps 728 mmHg 68%
    13:00 +12°C° 0 mm 2 mps 728 mmHg 67%
    14:00 +12°C° 0 mm 2 mps 727 mmHg 67%
    15:00 +12°C° 0 mm 2 mps 727 mmHg 67%
    16:00 +10°C° 0 mm 2 mps 727 mmHg 63%
    17:00 +9°C° 0 mm 2 mps 727 mmHg 60%
    18:00 +8°C° 0 mm 2 mps 728 mmHg 56%
    19:00 +8°C° 0 mm 2 mps 728 mmHg 56%
    20:00 +7°C° 0 mm 2 mps 728 mmHg 57%
    21:00 +7°C° 0 mm 2 mps 728 mmHg 57%
    22:00 +7°C° 0 mm 2 mps 728 mmHg 59%
    23:00 +7°C° 0 mm 2 mps 729 mmHg 61%
    Show more